[[{"header":{"parameterUnit":"m.s-1","parameterCategory":1,"la1":30.2991,"la2":30.254,"lo1":-89.0895,"lo2":-89.0444,"dy":0.0017,"dx":0.0017,"nx":28,"ny":28,"refTime":"2024-05-28T21:00:00:Z","depth":0,"parameterNumber":2,"parameterNumberName":"U-component_of_WINDS"},"data":[0,0,0,0,0,0,0,0,0,0,0,0,0,0,0,0,0,0,0,0,0,0,0,0,0,0,0,0,0,0,0,0,0,0,0,0,0,0,0,0,0,0,0,0,0,0,0,0,0,0,0,0,0,0,0,0,0,0,-1.0992,-1.0992,0,-1.0969,-1.0969,-1.0968,-1.0939,-1.0938,-1.0938,-1.0937,-1.0914,-1.0914,-1.0913,0,0,0,0,0,0,0,0,0,0,0,0,0,-1.1012,-1.1012,-1.0992,-1.0992,-1.0992,-1.0969,-1.0969,-1.0968,-1.0939,-1.0938,-1.0938,-1.0937,-1.0914,-1.0914,-1.0913,0,0,0,0,0,0,0,0,0,0,0,0,0,-1.0998,-1.1012,-1.0992,-1.0974,-1.0972,-1.0969,-1.0969,-1.0968,-1.0939,-1.0938,-1.0937,-1.0937,-1.0914,-1.0914,-1.0913,-1.0926,0,0,-1.0913,-1.0913,0,0,0,0,0,0,0,0,-1.0998,-1.0997,-1.0977,-1.0975,-1.0973,-1.0956,-1.0967,-1.0954,-1.0939,-1.0952,-1.0937,-1.0936,-1.0928,-1.0927,-1.0924,-1.0925,-1.0924,-1.0913,-1.0912,-1.0912,-1.0912,0,0,0,0,0,0,0,-1.0999,-1.0998,-1.0983,-1.0977,-1.0975,-1.0967,-1.0965,-1.0964,-1.0944,-1.095,-1.0948,-1.0946,-1.0927,-1.0925,-1.0923,-1.0924,-1.0913,-1.0912,-1.0912,-1.0912,-1.0935,-1.0936,0,0,0,0,0,0,-1.1003,-1.0999,-1.0984,-1.0982,-1.0984,-1.0968,-1.0964,-1.0962,-1.0944,-1.0941,-1.0946,-1.0945,-1.0925,-1.0924,-1.0923,-1.0936,-1.0912,-1.0912,-1.0912,-1.0934,-1.0935,-1.0936,0,0,0,0,0,0,-1.1004,-1.1002,-1.0985,-1.099,-1.0987,-1.0968,-1.0966,-1.0962,-1.0959,-1.0941,-1.0938,-1.0947,-1.0925,-1.0923,-1.0926,-1.0935,-1.0912,-1.0912,-1.0933,-1.0934,-1.0935,-1.0964,0,0,0,0,0,0,-1.1004,-1.1002,-1.1007,-1.099,-1.0987,-1.0988,-1.0966,-1.0962,-1.0959,-1.0956,-1.0941,-1.0938,-1.0924,-1.0926,-1.0925,-1.0934,-1.0912,-1.0932,-1.0934,-1.0935,-1.0963,-1.0966,-1.097,0,0,0,0,0,-1.1005,-1.1016,-1.1007,-1.1005,-1.0992,-1.0989,-1.0987,-1.097,-1.096,-1.0964,-1.0953,-1.0938,-1.0935,-1.0927,-1.0926,-1.0935,-1.0932,-1.0933,-1.0935,-1.0961,-1.0966,-1.097,0,0,0,0,0,0,-1.1034,-1.1013,-1.1003,-1.1009,-1.1001,-1.0984,-1.0989,-1.0976,-1.0971,-1.0968,-1.0948,-1.0945,-1.0951,-1.0943,-1.0935,-1.0946,-1.0931,-1.0932,-1.0951,-1.0955,-1.0959,-1.096,-1.0911,0,0,0,0,0,-1.1041,-1.104,-1.1022,-1.1029,-1.1025,-1.1008,-1.1006,-1.0994,-1.0985,-1.0981,-1.097,-1.0961,-1.0958,-1.0956,-1.0953,-1.0962,-1.0958,-1.0967,-1.0971,-1.0974,-1.0975,-1.098,-1.0984,-1.0941,-1.0941,-1.0941,0,0,-1.1056,-1.1044,-1.1045,-1.1034,-1.1027,-1.1026,-1.1005,-1.1005,-1.1004,-1.0981,-1.0983,-1.0974,-1.0964,-1.097,-1.0972,-1.0964,-1.0987,-1.0976,-1.0979,-1.0978,-1.0982,-1.0986,-1.099,-1.0943,-1.0942,-1.0942,0,0,-1.1082,-1.1073,-1.1078,-1.1071,-1.1059,-1.1047,-1.1049,-1.1034,-1.1027,-1.1029,-1.1011,-1.101,-1.1005,-1.0999,-1.0995,-1.1019,-1.1006,-1.1019,-1.1037,-1.1042,-1.1045,-1.1048,-1.1057,-1.106,-1.102,-1.102,-1.102,0,-1.1102,-1.1099,-1.1082,-1.1083,-1.1079,-1.1058,-1.1063,-1.1057,-1.1045,-1.1043,-1.1034,-1.1027,-1.1019,-1.1023,-1.1029,-1.1027,-1.1028,-1.102,-1.1046,-1.1049,-1.1051,-1.1059,-1.1062,-1.1022,-1.1022,-1.1021,-1.1021,0,-1.1124,-1.1123,-1.1128,-1.1117,-1.1114,-1.1117,-1.1101,-1.1099,-1.1088,-1.1078,-1.108,-1.1069,-1.1063,-1.1063,-1.1052,-1.1066,-1.1061,-1.105,-1.1033,-1.1057,-1.1064,-1.1067,-1.1024,-1.1024,-1.1023,-1.1023,0,0,-1.1167,-1.1147,-1.1149,-1.1144,-1.113,-1.1129,-1.1131,-1.1125,-1.1124,-1.1117,-1.1119,-1.1116,-1.1105,-1.11,-1.1088,-1.1092,-1.1113,-1.108,-1.1079,-1.1086,-1.1127,-1.1136,-1.114,-1.1104,-1.1104,-1.1105,-1.1128,0,-1.1191,-1.1193,-1.1178,-1.1184,-1.1183,-1.1164,-1.1166,-1.1158,-1.1148,-1.1146,-1.1136,-1.1134,-1.112,-1.1117,-1.112,-1.1109,-1.112,-1.1108,-1.1105,-1.1105,-1.1108,-1.1143,-1.1153,-1.1175,-1.1131,-1.1131,-1.1132,0,-1.1218,-1.1212,-1.1218,-1.1204,-1.1203,-1.1206,-1.1199,-1.1197,-1.1188,-1.1181,-1.1176,-1.1163,-1.1164,-1.115,-1.1152,-1.1144,-1.1142,-1.1137,-1.1137,-1.1136,-1.112,-1.1143,-1.1182,-1.1185,-1.1136,-1.1136,-1.1135,0,-1.1249,-1.1242,-1.1245,-1.1241,-1.1225,-1.1227,-1.1221,-1.1211,-1.1208,-1.1202,-1.12,-1.1195,-1.1192,-1.1189,-1.1174,-1.1165,-1.1179,-1.1163,-1.1173,-1.1173,-1.1176,-1.1176,-1.1215,-1.1176,-1.1176,-1.1176,-1.1176,0,-1.1276,-1.1281,-1.1259,-1.1261,-1.1266,-1.1248,-1.1254,-1.1245,-1.1237,-1.1237,-1.122,-1.1221,-1.1202,-1.12,-1.1189,-1.1193,-1.1192,-1.1187,-1.1183,-1.1188,-1.1189,-1.1186,-1.1184,-1.1177,-1.1176,-1.1176,-1.1176,0,-1.1311,-1.1296,-1.1298,-1.1283,-1.1279,-1.1283,-1.127,-1.1272,-1.1261,-1.1262,-1.1261,-1.1245,-1.1243,-1.1228,-1.1223,-1.1215,-1.1223,-1.1217,-1.1226,-1.1224,-1.1235,-1.1234,-1.1273,-1.1278,-1.1236,-1.1237,-1.1237,0,-1.1329,-1.1332,-1.1317,-1.1316,-1.131,-1.1308,-1.1305,-1.1289,-1.1287,-1.1277,-1.1279,-1.1275,-1.1271,-1.1269,-1.1257,-1.1253,-1.1246,-1.126,-1.1246,-1.125,-1.1246,-1.1246,-1.1246,-1.1263,-1.1264,-1.1264,-1.1265,0,-1.1363,-1.1356,-1.1352,-1.1346,-1.1343,-1.1338,-1.1332,-1.1332,-1.1313,-1.1312,-1.1309,-1.1306,-1.13,-1.1297,-1.1291,-1.1284,-1.1272,-1.127,-1.1272,-1.1276,-1.1281,-1.1278,-1.1234,-1.1269,-1.1268,-1.1268,-1.1268,-1.1268,-1.139,-1.1392,-1.1382,-1.1378,-1.1372,-1.1366,-1.1367,-1.1357,-1.1354,-1.1348,-1.1338,-1.1337,-1.1328,-1.1318,-1.1313,-1.1312,-1.1305,-1.1308,-1.1308,-1.1309,-1.1312,-1.1282,-1.1311,-1.1311,-1.1311,-1.1311,-1.131,0,-1.1423,-1.1416,-1.1413,-1.1404,-1.1402,-1.139,-1.1382,-1.1381,-1.138,-1.1372,-1.1369,-1.1366,-1.1363,-1.1351,-1.1346,-1.1348,-1.1342,-1.1347,-1.1347,-1.1346,-1.1319,-1.1317,-1.1352,-1.1352,-1.1352,-1.1352,-1.1352,-1.1352,-1.144,-1.1443,-1.1434,-1.1434,-1.1426,-1.1424,-1.1421,-1.1416,-1.141,-1.1407,-1.1404,-1.1397,-1.1388,-1.1382,-1.1379,-1.1376,-1.1375,-1.1382,-1.1377,-1.1352,-1.1348,-1.1344,-1.1342,-1.1382,-1.1382,-1.1404,-1.1404,-1.1404]},{"header":{"parameterUnit":"m.s-1","parameterCategory":1,"la1":30.2991,"la2":30.254,"lo1":-89.0895,"lo2":-89.0444,"dy":0.0017,"dx":0.0017,"nx":28,"ny":28,"refTime":"2024-05-28T21:00:00:Z","depth":0,"parameterNumber":3,"parameterNumberName":"V-component_of_WINDS"},"data":[0,0,0,0,0,0,0,0,0,0,0,0,0,0,0,0,0,0,0,0,0,0,0,0,0,0,0,0,0,0,0,0,0,0,0,0,0,0,0,0,0,0,0,0,0,0,0,0,0,0,0,0,0,0,0,0,0,0,2.1833,2.1833,0,2.1872,2.1872,2.1873,2.1921,2.1922,2.1922,2.1923,2.1962,2.1963,2.1963,0,0,0,0,0,0,0,0,0,0,0,0,0,2.1801,2.1801,2.1833,2.1833,2.1834,2.1872,2.1872,2.1873,2.1921,2.1922,2.1923,2.1924,2.1962,2.1963,2.1963,0,0,0,0,0,0,0,0,0,0,0,0,0,2.1825,2.1801,2.1833,2.1862,2.1865,2.1872,2.1872,2.1873,2.1921,2.1922,2.1923,2.1924,2.1962,2.1963,2.1963,2.1943,0,0,2.1965,2.1965,0,0,0,0,0,0,0,0,2.1823,2.1826,2.1858,2.186,2.1864,2.1893,2.1875,2.1896,2.192,2.19,2.1923,2.1925,2.1938,2.1941,2.1945,2.1945,2.1947,2.1965,2.1965,2.1965,2.1965,0,0,0,0,0,0,0,2.1822,2.1825,2.1848,2.1858,2.1862,2.1874,2.1879,2.188,2.1912,2.1902,2.1905,2.1909,2.194,2.1945,2.1947,2.1947,2.1965,2.1965,2.1965,2.1966,2.1934,2.1933,0,0,0,0,0,0,2.1816,2.1823,2.1847,2.185,2.1846,2.1874,2.1879,2.1882,2.1912,2.1918,2.1908,2.1911,2.1943,2.1946,2.1948,2.1927,2.1965,2.1966,2.1966,2.1935,2.1933,2.1932,0,0,0,0,0,0,2.1815,2.1817,2.1846,2.1837,2.1842,2.1873,2.1876,2.1882,2.1887,2.1917,2.1923,2.1907,2.1944,2.1948,2.1944,2.1929,2.1966,2.1966,2.1936,2.1934,2.1933,2.1885,0,0,0,0,0,0,2.1814,2.1817,2.1809,2.1837,2.1842,2.184,2.1876,2.1882,2.1888,2.1892,2.1918,2.1923,2.1946,2.1943,2.1945,2.1931,2.1967,2.1938,2.1935,2.1933,2.1888,2.1882,2.1877,0,0,0,0,0,2.1812,2.1794,2.1808,2.1811,2.1833,2.1839,2.1843,2.1869,2.1887,2.1879,2.1899,2.1922,2.1931,2.1943,2.1945,2.1931,2.1939,2.1936,2.1934,2.1891,2.1883,2.1877,0,0,0,0,0,0,2.1763,2.1798,2.1814,2.1804,2.1819,2.1848,2.1839,2.186,2.187,2.1874,2.1906,2.1912,2.1905,2.1918,2.193,2.1914,2.1938,2.1936,2.1905,2.1898,2.1893,2.1889,2.1967,0,0,0,0,0,2.1751,2.1753,2.1784,2.1772,2.1778,2.1807,2.1811,2.1831,2.1847,2.1853,2.1872,2.1887,2.1893,2.1897,2.1904,2.1891,2.1897,2.1882,2.1876,2.1872,2.1869,2.1864,2.1858,2.1924,2.1924,2.1924,0,0,2.1726,2.1745,2.1744,2.1762,2.1776,2.1777,2.1812,2.1812,2.1814,2.1853,2.1851,2.1866,2.1885,2.1877,2.1874,2.1887,2.1853,2.1868,2.1864,2.1864,2.1861,2.1854,2.1849,2.1922,2.1922,2.1923,0,0,2.1681,2.1696,2.1688,2.1701,2.1721,2.1741,2.1739,2.1766,2.1777,2.1776,2.1806,2.1809,2.1819,2.1831,2.1839,2.1801,2.1822,2.1802,2.1772,2.1767,2.1761,2.1757,2.1743,2.1738,2.18,2.18,2.18,0,2.1647,2.1651,2.1681,2.168,2.1687,2.1723,2.1716,2.1727,2.1748,2.1753,2.1768,2.1782,2.1797,2.1793,2.1784,2.1789,2.1788,2.1799,2.176,2.1755,2.1752,2.1739,2.1734,2.1797,2.1797,2.1798,2.1798,0,2.1609,2.1611,2.1602,2.1623,2.1629,2.1624,2.1654,2.1657,2.1677,2.1695,2.1694,2.1714,2.1727,2.1728,2.1746,2.1726,2.1734,2.1754,2.1779,2.1742,2.1731,2.1727,2.1793,2.1794,2.1795,2.1796,0,0,2.1532,2.1571,2.1567,2.1577,2.1603,2.1605,2.1603,2.1616,2.1618,2.1632,2.1631,2.164,2.1659,2.1667,2.1688,2.1684,2.1653,2.1704,2.1705,2.1694,2.1632,2.1617,2.1611,2.1668,2.1667,2.1667,2.1631,0,2.1492,2.149,2.1518,2.1508,2.1511,2.1547,2.1545,2.1561,2.1578,2.1584,2.1604,2.1609,2.1634,2.164,2.1637,2.1657,2.1641,2.166,2.1668,2.1667,2.1661,2.1605,2.1588,2.1553,2.1627,2.1626,2.1626,0,2.1444,2.1456,2.1447,2.1474,2.1477,2.1474,2.1489,2.1494,2.1513,2.1526,2.1537,2.1561,2.1562,2.1587,2.1588,2.16,2.1606,2.1616,2.1616,2.1617,2.1643,2.1604,2.1543,2.1537,2.1619,2.162,2.162,0,2.1389,2.1403,2.14,2.1407,2.1439,2.1437,2.145,2.1471,2.1477,2.149,2.1495,2.1507,2.1514,2.1524,2.1551,2.1567,2.155,2.1577,2.1561,2.156,2.1555,2.1554,2.1493,2.1559,2.1559,2.1559,2.1559,0,2.1341,2.1333,2.1375,2.1373,2.1367,2.1399,2.1392,2.1409,2.1427,2.1429,2.1461,2.1463,2.1499,2.1505,2.1527,2.1525,2.1528,2.1539,2.1544,2.1535,2.1534,2.1538,2.1541,2.1558,2.1558,2.1558,2.1558,0,2.1277,2.1305,2.1304,2.1335,2.1342,2.1336,2.1363,2.1362,2.1383,2.1385,2.1388,2.142,2.1429,2.1457,2.1473,2.1488,2.1479,2.149,2.1472,2.1476,2.1458,2.1459,2.1397,2.139,2.146,2.146,2.1459,0,2.1244,2.124,2.127,2.1274,2.1286,2.1292,2.1299,2.1331,2.1337,2.136,2.1357,2.1368,2.1379,2.1391,2.1416,2.1428,2.144,2.1417,2.1442,2.1433,2.144,2.1439,2.1439,2.1411,2.1411,2.141,2.1409,0,2.1182,2.1197,2.1205,2.1219,2.1227,2.1239,2.1254,2.1255,2.1292,2.1297,2.1306,2.1314,2.1331,2.1342,2.1359,2.1373,2.1397,2.1402,2.1399,2.1389,2.1379,2.1384,2.1457,2.1402,2.1403,2.1404,2.1404,2.1404,2.1133,2.1131,2.1153,2.1162,2.1176,2.1189,2.1191,2.1212,2.122,2.1236,2.1255,2.1262,2.1284,2.1309,2.1321,2.1328,2.1341,2.1337,2.1335,2.1334,2.1329,2.1378,2.1331,2.1332,2.1332,2.1332,2.1332,0,2.1073,2.1089,2.1097,2.1116,2.1124,2.1147,2.1164,2.1169,2.1175,2.1192,2.1203,2.1214,2.1225,2.1252,2.1266,2.1266,2.1277,2.1268,2.1268,2.1271,2.1317,2.1318,2.1259,2.1259,2.1259,2.1259,2.1259,2.1259,2.1042,2.104,2.1058,2.1064,2.108,2.1087,2.1095,2.1108,2.1122,2.1134,2.1143,2.1161,2.1182,2.1198,2.121,2.1218,2.1221,2.1208,2.122,2.1261,2.1268,2.1275,2.1276,2.1209,2.1209,2.1174,2.1173,2.1173]}]]